sat.trackr.live / text

‹ back to catalog

COSMOS 2409

NORAD 28420 · 2004-037B

PAYLOAD ACTIVE UNKNOWN

§ Identity

Operator
Country
CIS
Launch date
2004-09-23
Launch site
PLMSC
Launch vehicle
Mass (kg)
RCS (m²)
0.92

External: N2YO · Heavens-Above · Gunter

§ Orbital elements

Epoch: 2026-05-25T03:39:08.725248Z

Period
115.63 min
Inclination
82.4860°
Eccentricity
0.0013286
Mean motion
12.45322872 rev/d
Perigee alt
1,473.7 km
Apogee alt
1,494.6 km
Semi-major
7,862.3 km
B*
-6.1816e-4
RAAN
343.5158°
Arg perigee
334.2656°
Mean anomaly
25.7763°
Rev number
98,468

§ Raw data

COSMOS 24091 28420U 04037B   26145.15218432 -.00000078  00000+0 -61816-3 0  99952 28420  82.4860 343.5158 0013286 334.2656  25.7763 12.45322872984685

JSON: /api/v1/satellites/28420 · /tle

For live sub-satellite position, see the globe view (requires WebGL).

§ Visibility from observer

Set your observer location to see the next 7 days of passes ≥ 10°. The values pass through the URL so the page stays shareable.

No JS? Fill the form by hand. The geolocation button needs JavaScript.